Weather in Aysha

Russia / Republic of Tatarstan     55°52′14″N   48°37′48″E
temp.,
°C
wind,
m/s
gust,
m/s
humid.,
%
clouds,
%
prec.,
mm/h
press.,
hPa
HPBL,
m
4 march, thu
thu400:00−9wsw3795100 0.1 1004175
03:00−7wsw61295100 0.6 1002452
06:00−4wsw61295100 0.6 1000497
09:00−2wsw71295100 1.1 998804
12:00−1sw81396100 0.5 994895
15:000wsw101698100 1.8 9911072
18:00−3w81780100 0.4 992866
21:00−5w8168678 0.4 995677
5 march, fri
fri500:00−7w6119399 0.0 997354
03:00−10w489699 0.1 1000146
06:00−14wnw239779 0.0 100223
09:00−11nw259576 0.0 1004211
12:00−8wnw348647 0.0 1005368
15:00−7w358924 0.0 1007380
18:00−12wsw33920 0.0 100824
21:00−13wsw33930 0.0 101034
6 march, sat
sat600:00−13wsw339644 0.0 101036
03:00−14wsw339732 0.0 101132
06:00−13wsw239697 0.1 101141
09:00−11w239598 0.3 1012191
12:00−9wnw3390100 0.1 1012429
15:00−9wnw4590100 0.2 1011617
18:00−12wnw3596100 0.2 1012132
21:00−16nw2395100 0.4 101338
7 march, sun
sun700:00−19w2210078 0.0 101321
03:00−21wsw2210086 0.1 101320
06:00−21sw3310081 0.0 101328
09:00−16sw489583 0.0 1012230
12:00−12ssw6108546 0.0 1009416
15:00−10s8148667 0.0 1006611
18:00−8s81593100 0.3 1003844
21:00−6ssw81494100 1.8 999984
8 march, mon
mon800:00−6ssw91593100 1.3 994893
03:00−5ssw91594100 1.9 991889
06:00−10wsw61586100 0.6 991492
09:00−9sw8148650 0.6 993611
12:00−7wsw913830 0.0 995973
15:00−7wsw10167850 0.0 9971422
18:00−9w81583100 0.1 999826
21:00−10w61291100 0.1 1002561